COSMOS 1275 DEB, 42159

Orbit data source: Space-Track

COSMOS 1275 DEB, 42159 is space debris in LEO originally from a launch on Thu, 04 Jun 1981 UTC launched from the Plesetsk Missile And Space Complex (PKMTR). Debris objects in space refer to the collection of defunct objects orbiting the Earth. Examples of debris include non-operational satellites, rocket bodies, and fragments generated from explosions, collisions, or faulty payload assembly.

Loading next visibility...
Identifier
42159, 1981-053RX
Orbit
LEO
Country
Flag of CISCIS
Related business
Manufacturer
Unknown
Mission
Spacecraft
Bus & Motor
Unknown
Mass
Unknown
Launch date (UTC)
1981-06-04 (45 years ago)
Launch vehicle
Unknown
Launch site
Plesetsk Missile And Space Complex (PKMTR)
Object type
Payload
Rocket body
Debris
Shape & HBR
Unknown shape, 0.1 m
Radar Cross Section
Small (<0.1 m²)

Expand to show TLE details & history
Last TLE update: 1 month ago

TLE from 1 month ago
0 COSMOS 1275 DEB
1 42159U 81053RX  26074.46123050  .00000834  00000-0  74203-3 0  9992
2 42159  82.8239 154.2606 0061151 352.6598   7.3660 13.82822806585753
Epoch: 2026-03-15T11:04Z
TLE epoch observation values (Epoch: 2026-03-15T11:04:10.315Z)
Latitude
-0.00001°
Longitude
175.14989°
Altitude
912.329 km
Speed
7.418 km/s
True Right ascension
10h 17m 02s
True Declination
0° 00' 00"
Sunlit
Object was in full shadow at epoch
Visualization orbit readout
Latitude
Unknown
Longitude
Unknown
Altitude
Unknown
Speed
Unknown
Apparent Right ascension
Unknown
Apparent Declination
Unknown
Sunlit
N/A
Visualization observer readout
Local Sidereal Time
22:01:56
Azimuth
Unknown
Elevation
Unknown
Doppler factor
Unknown
Orbital elements
Apogee altitude
995.853 km
Perigee altitude
906.215 km
Semi-major axis
7,329.171 km
Eccentricity
0.00612
Inclination
82.8239°
RAAN
154.2606°
Arg. of periapsis
352.6598°
True anomaly
7.45653°
Mean anomaly
7.366°
Eccentric anomaly
7.41119°
Mean motion
3.45908 °/min
Orbital period
104.07 mins
BSTAR
0.00074203
Loading maneuver chart data...
Computing Atmospheric mass density...
Loading historical data...
Loading historical data...
Loading historical data...
Loading historical data...
Loading historical data...
Loading historical data...
Loading historical data...

Documentation

Showing up to 5 results
|